Regional Weather Roundup
Issued by NWS

Home | Current Version | Previous Version | Text Only | Print | Product List | Glossary Off
Versions: 1 2 3 4 5 6 7 8 9 10 11 12 13 14 15 16 17 18 19 20 21 22 23 24 25 26 27 28 29 30 31 32 33 34 35 36 37 38 39 40 41 42 43 44 45 46 47 48 49 50

844
ASUS45 KTFX 230110
RWRMT
MONTANA REGIONAL WEATHER ROUNDUP
NATIONAL WEATHER SERVICE GREAT FALLS MT
700 PM MDT MON AUG 22 2016

NOTE: "FAIR" INDICATES FEW OR NO CLOUDS BELOW 12000 FEET WITH NO
SIGNIFICANT WEATHER AND/OR OBSTRUCTIONS TO VISIBILITY.

MTZ001>007-043-230200-
WEST OF THE DIVIDE

CITY           SKY/WX    TMP DP  RH WIND       PRES   REMARKS
KALISPELL      MOSUNNY   70  29  21 W9        29.88R
MISSOULA       MOSUNNY   72  25  17 W13       29.93S
BUTTE          SUNNY     70  18  13 NW22G33   29.92R
MULLAN PASS    MOSUNNY   53  31  42 VRB6      30.05S
DEER LODGE       N/A     70  16  12 W10       29.95R
EUREKA           N/A     70  30  23 W12       29.88R
HAMILTON         N/A     70  27  19 NW12      29.92S
LIBBY            N/A     72  30  21 SW5       29.92R
PLAINS           N/A     69  33  26 W5        29.93R
RONAN            N/A     68  30  24 SW10      29.98
$$

MTZ008-052>055-230200-
SOUTHWEST MONTANA

CITY           SKY/WX    TMP DP  RH WIND       PRES   REMARKS
BOZEMAN        CLOUDY    74  28  18 N20G26    29.79R
DILLON         MOSUNNY   76  24  14 W16       29.82S
W YELLOWSTONE  SUNNY     73  10   9 SW20G33   29.97S
ENNIS          SUNNY     82   5   5 W13G20    29.88R
THREE FORKS      N/A     80  80 100 NW15      29.81R
TWIN BRIDGES     N/A     81  19  10 NW12      29.84R
$$

MTZ009-010-012-014-046-048-049-054-230200-
EAST SLOPES AND CENTRAL MONTANA

CITY           SKY/WX    TMP DP  RH WIND       PRES   REMARKS
CUT BANK       SUNNY     65  27  23 W33G40    29.80R
GREAT FALLS    CLOUDY    75  18  11 W26G36    29.78S
MALMSTROM AFB  CLOUDY    75  22  14 MISG      29.78S
HELENA         MOSUNNY   75  20  12 W15G21    29.83F
CHOTEAU          N/A     70  25  18 W17G28    29.84S
CONRAD           N/A     69  29  22 SW15      29.85R
$$

MTZ011-013-016-021-045-047-050-051-230200-
NORTH CENTRAL MONTANA

CITY           SKY/WX    TMP DP  RH WIND       PRES   REMARKS
HAVRE          CLOUDY    74  25  16 NW18G29   29.72R
LEWISTOWN      SUNNY     75  26  16 N3        29.79R
N BAR RANCH      N/A     77  25  14 NW15      29.81R
CHINOOK          N/A     73  30  20 W8        29.71R
$$

MTZ017>020-022>027-061-062-230200-
NORTHEAST MONTANA

CITY           SKY/WX    TMP DP  RH WIND       PRES   REMARKS
GLASGOW        PTCLDY    80  36  20 NW7       29.63R
JORDAN           N/A     84  24  11 NW16      29.66R
SIDNEY         CLOUDY    89  38  16 NW8       29.58S
WOLF POINT     CLOUDY    89  31  12 NW15      29.61S
SCOBEY           N/A     84  31  15 SW7       29.66R
$$

MTZ028>42-056>058-230200-
SOUTHCENTRAL AND SOUTHEAST MONTANA

CITY           SKY/WX    TMP DP  RH WIND       PRES   REMARKS
BAKER          CLEAR     88  47  24 W3        29.66R
BILLINGS       MOSUNNY   83  30  14 N28G37    29.69R
LIVINGSTON     MOSUNNY   83  25  12 NW13      29.76R
MILES CITY     CLEAR     88  43  20 SW6       29.61S
EKALAKA          N/A     84  45  25 W3        29.71S
FORSYTH          N/A     90  43  19 E5        29.62S
LAUREL           N/A     85  32  15 NW6       29.72R
ROUNDUP          N/A     79  32  18 N7        29.67R
$$

REGIONAL REPORTS...DAKOTAS

CITY           SKY/WX    TMP DP  RH WIND       PRES   REMARKS
WILLISTON      CLOUDY    93  30  10 NW13      29.58R
MINOT          CLEAR     84  59  42 E8        29.58S
DICKINSON      CLEAR     88  52  29 SE7       29.58S
CROSBY           N/A     84  48  28 W6        29.59S
BISMARCK       CLEAR     83  70  64 E10       29.57F
GRAND FORKS    PTCLDY    79  67  66 SE6       29.66R
FARGO          CLEAR     81  68  64 SE9       29.67S
BUFFALO SD       N/A     87  53  31 N7        29.60S
RAPID CITY     CLEAR     78  62  57 CALM      29.66F
$$

REGIONAL REPORTS...WYOMING/IDAHO/WASHINGTON

CITY           SKY/WX    TMP DP  RH WIND       PRES   REMARKS
GILLETTE       CLEAR     85  38  18 N9        29.75R
SHERIDAN       CLEAR     87  40  19 E3        29.70S
BUFFALO WY     CLEAR     88  27  11 CALM      29.80F
CODY           CLOUDY    82  21  10 W13G21    29.83R
YELLOWSTONE LA   N/A     67   6   9 W12G24    30.10S
IDAHO FALLS    SUNNY     81  17   9 SW29G38   29.89S
SALMON         SUNNY     79  19  11 NW14G20   29.80R
BOISE            N/A     84  25  11 N10       29.87F
SPOKANE        MOSUNNY   74  28  18 W17       29.94R
$$

REGIONAL REPORTS...ALBERTA

CITY           SKY/WX    TMP DP  RH WIND       PRES   REMARKS
EDMONTON       MOSUNNY   57  54  88 NW9       29.56R
CALGARY        LGT RAIN  52  45  76 W18G32    29.68R
LETHBRIDGE     PTSUNNY   68  28  22 W31G43    29.71R
MEDICINE HAT   MOSUNNY   68  43  40 NW9       29.64R
WATERTON GATE    N/A     61  28  29 W20G38      N/A
CARDSTON         N/A     64  28  25 W20G31      N/A
ONEFOUR          N/A     72  21  15 W29G36      N/A
$$

REGIONAL REPORTS...SASKATCHEWAN

CITY           SKY/WX    TMP DP  RH WIND       PRES   REMARKS
SWIFT CURRENT  SUNNY     70  43  37 W9        29.64S
REGINA         CLOUDY    77  46  33 NW12      29.59R
SASKATOON      PTSUNNY   70  57  64 SW9       29.60R
CYPRESS HILLS    N/A     64  27  24 W9          N/A
VAL MARIE        N/A     75  28  17 NW7         N/A
ROCKGLEN         N/A     77  43  29 NW1         N/A
ASSINIBOIA       N/A     59  46  63 SE12        N/A
$$




USA.gov is the U.S. government's official web portal to all federal, state and local government web resources and services.